Time,TemperatureF,DewpointF,PressureIn,WindDirection,WindDirectionDegrees,WindSpeedMPH,WindSpeedGustMPH,Humidity,HourlyPrecipIn,Conditions,Clouds,dailyrainin,SoftwareType,DateUTC
2013-08-29 00:00:00,69.9,68.4,29.95,NE,38,0.0,0.0,95,0.00,,,0.00,WUHU216DAVISVP2,2013-08-29 04:00:00,
2013-08-29 00:01:00,69.9,68.4,29.95,NE,38,0.0,0.0,95,0.00,,,0.00,WUHU216DAVISVP2,2013-08-29 04:01:00,
2013-08-29 00:02:00,69.9,68.4,29.95,NE,38,0.0,0.0,95,0.00,,,0.00,WUHU216DAVISVP2,2013-08-29 04:02:00,
2013-08-29 00:07:00,69.7,68.2,29.95,NE,38,0.0,0.0,95,0.00,,,0.00,WUHU216DAVISVP2,2013-08-29 04:07:00,
2013-08-29 00:12:00,69.6,68.1,29.95,NE,37,0.0,0.0,95,0.00,,,0.00,WUHU216DAVISVP2,2013-08-29 04:12:00,
2013-08-29 00:17:00,69.5,68.0,29.95,NE,38,0.0,0.0,95,0.00,,,0.00,WUHU216DAVISVP2,2013-08-29 04:17:00,
2013-08-29 00:22:00,69.3,67.8,29.95,NE,38,0.0,0.0,95,0.00,,,0.00,WUHU216DAVISVP2,2013-08-29 04:22:00,
2013-08-29 00:27:00,69.2,67.7,29.95,NE,37,0.0,0.0,95,0.00,,,0.00,WUHU216DAVISVP2,2013-08-29 04:27:00,
2013-08-29 00:32:00,69.1,67.9,29.95,NE,38,0.0,0.0,96,0.00,,,0.00,WUHU216DAVISVP2,2013-08-29 04:32:00,
2013-08-29 00:37:00,68.9,67.7,29.95,NE,38,0.0,0.0,96,0.00,,,0.00,WUHU216DAVISVP2,2013-08-29 04:37:00,
2013-08-29 00:42:00,68.8,67.3,29.95,NE,38,0.0,0.0,95,0.00,,,0.00,WUHU216DAVISVP2,2013-08-29 04:42:00,
2013-08-29 00:47:00,68.6,67.1,29.95,NE,38,0.0,0.0,95,0.00,,,0.00,WUHU216DAVISVP2,2013-08-29 04:47:00,
2013-08-29 00:52:00,68.4,66.9,29.95,NE,38,0.0,0.0,95,0.00,,,0.00,WUHU216DAVISVP2,2013-08-29 04:52:00,
2013-08-29 00:57:00,68.2,66.7,29.95,NE,38,0.0,0.0,95,0.00,,,0.00,WUHU216DAVISVP2,2013-08-29 04:57:00,
2013-08-29 01:02:00,68.0,66.5,29.95,NE,38,0.0,0.0,95,0.00,,,0.00,WUHU216DAVISVP2,2013-08-29 05:02:00,
2013-08-29 01:07:00,67.9,66.4,29.95,NE,38,0.0,0.0,95,0.00,,,0.00,WUHU216DAVISVP2,2013-08-29 05:07:00,
2013-08-29 01:12:00,67.9,66.7,29.95,NE,38,0.0,0.0,96,0.00,,,0.00,WUHU216DAVISVP2,2013-08-29 05:12:00,
2013-08-29 01:17:00,67.9,66.7,29.95,NE,38,0.0,0.0,96,0.00,,,0.00,WUHU216DAVISVP2,2013-08-29 05:17:00,
2013-08-29 01:22:00,67.7,66.5,29.95,NE,38,0.0,0.0,96,0.00,,,0.00,WUHU216DAVISVP2,2013-08-29 05:22:00,
2013-08-29 01:27:00,67.5,66.3,29.95,NE,38,0.0,0.0,96,0.00,,,0.00,WUHU216DAVISVP2,2013-08-29 05:27:00,
2013-08-29 01:32:00,67.3,66.1,29.95,NE,38,0.0,0.0,96,0.00,,,0.00,WUHU216DAVISVP2,2013-08-29 05:32:00,
2013-08-29 01:37:00,67.2,66.0,29.96,NE,38,0.0,0.0,96,0.00,,,0.00,WUHU216DAVISVP2,2013-08-29 05:37:00,
2013-08-29 01:42:00,67.1,65.9,29.96,NE,38,0.0,0.0,96,0.00,,,0.00,WUHU216DAVISVP2,2013-08-29 05:42:00,
2013-08-29 01:47:00,67.0,65.8,29.96,NE,38,0.0,0.0,96,0.00,,,0.00,WUHU216DAVISVP2,2013-08-29 05:47:00,
2013-08-29 01:52:00,66.9,65.7,29.96,NE,38,0.0,0.0,96,0.00,,,0.00,WUHU216DAVISVP2,2013-08-29 05:52:00,
2013-08-29 01:59:00,67.0,66.1,29.96,NE,38,0.0,1.0,97,0.00,,,0.00,WUHU216DAVISVP2,2013-08-29 05:59:00,
2013-08-29 02:04:00,67.1,66.2,29.96,NE,38,0.0,0.0,97,0.00,,,0.00,WUHU216DAVISVP2,2013-08-29 06:04:00,
2013-08-29 02:09:00,67.2,66.3,29.96,NE,38,0.0,0.0,97,0.00,,,0.00,WUHU216DAVISVP2,2013-08-29 06:09:00,
2013-08-29 02:14:00,67.2,66.3,29.96,NE,38,0.0,0.0,97,0.00,,,0.00,WUHU216DAVISVP2,2013-08-29 06:14:00,
2013-08-29 02:19:00,67.1,66.2,29.96,NE,38,0.0,0.0,97,0.00,,,0.00,WUHU216DAVISVP2,2013-08-29 06:19:00,
2013-08-29 02:24:00,67.0,65.8,29.96,NE,38,0.0,0.0,96,0.00,,,0.00,WUHU216DAVISVP2,2013-08-29 06:24:00,
2013-08-29 02:29:00,66.8,65.6,29.95,NE,38,0.0,0.0,96,0.00,,,0.00,WUHU216DAVISVP2,2013-08-29 06:29:00,
2013-08-29 02:34:00,66.6,65.4,29.95,NE,38,0.0,0.0,96,0.00,,,0.00,WUHU216DAVISVP2,2013-08-29 06:34:00,
2013-08-29 02:39:00,66.4,65.2,29.95,NE,37,0.0,0.0,96,0.00,,,0.00,WUHU216DAVISVP2,2013-08-29 06:39:00,
2013-08-29 02:44:00,66.2,65.0,29.96,NE,38,0.0,0.0,96,0.00,,,0.00,WUHU216DAVISVP2,2013-08-29 06:44:00,
2013-08-29 02:49:00,66.1,64.9,29.96,NE,38,0.0,0.0,96,0.00,,,0.00,WUHU216DAVISVP2,2013-08-29 06:49:00,
2013-08-29 02:54:00,65.9,64.7,29.96,NE,38,0.0,0.0,96,0.00,,,0.00,WUHU216DAVISVP2,2013-08-29 06:54:00,
2013-08-29 02:58:00,65.8,64.6,29.96,NE,38,0.0,0.0,96,0.00,,,0.00,WUHU216DAVISVP2,2013-08-29 06:58:00,
2013-08-29 03:03:00,65.7,64.8,29.96,NE,38,0.0,0.0,97,0.00,,,0.00,WUHU216DAVISVP2,2013-08-29 07:03:00,
2013-08-29 03:08:00,65.7,64.8,29.96,NE,38,0.0,0.0,97,0.00,,,0.00,WUHU216DAVISVP2,2013-08-29 07:08:00,
2013-08-29 03:13:00,65.8,64.9,29.96,NE,38,0.0,0.0,97,0.00,,,0.00,WUHU216DAVISVP2,2013-08-29 07:13:00,
2013-08-29 03:18:00,65.9,65.0,29.95,NE,38,0.0,0.0,97,0.00,,,0.00,WUHU216DAVISVP2,2013-08-29 07:18:00,
2013-08-29 03:23:00,65.9,65.0,29.95,NE,38,0.0,0.0,97,0.00,,,0.00,WUHU216DAVISVP2,2013-08-29 07:23:00,
2013-08-29 03:28:00,65.8,64.9,29.95,NE,38,0.0,0.0,97,0.00,,,0.00,WUHU216DAVISVP2,2013-08-29 07:28:00,
2013-08-29 03:33:00,65.8,64.9,29.95,NE,38,0.0,0.0,97,0.00,,,0.00,WUHU216DAVISVP2,2013-08-29 07:33:00,
2013-08-29 03:38:00,65.8,64.9,29.95,NE,38,0.0,0.0,97,0.00,,,0.00,WUHU216DAVISVP2,2013-08-29 07:38:00,
2013-08-29 03:43:00,65.7,64.8,29.95,NE,38,0.0,0.0,97,0.00,,,0.00,WUHU216DAVISVP2,2013-08-29 07:43:00,
2013-08-29 03:48:00,65.6,64.7,29.95,NE,38,0.0,0.0,97,0.00,,,0.00,WUHU216DAVISVP2,2013-08-29 07:48:00,
2013-08-29 03:53:00,65.4,64.5,29.95,NE,38,0.0,0.0,97,0.00,,,0.00,WUHU216DAVISVP2,2013-08-29 07:53:00,
2013-08-29 03:58:00,65.2,64.3,29.95,NE,38,0.0,0.0,97,0.00,,,0.00,WUHU216DAVISVP2,2013-08-29 07:58:00,
2013-08-29 04:03:00,65.0,63.8,29.95,NE,38,0.0,0.0,96,0.00,,,0.00,WUHU216DAVISVP2,2013-08-29 08:03:00,
2013-08-29 04:08:00,64.7,63.5,29.96,NE,37,0.0,0.0,96,0.00,,,0.00,WUHU216DAVISVP2,2013-08-29 08:08:00,
2013-08-29 04:13:00,64.6,63.7,29.96,NE,38,0.0,0.0,97,0.00,,,0.00,WUHU216DAVISVP2,2013-08-29 08:13:00,
2013-08-29 04:18:00,64.6,63.7,29.96,NE,37,0.0,0.0,97,0.00,,,0.00,WUHU216DAVISVP2,2013-08-29 08:18:00,
2013-08-29 04:23:00,64.6,63.7,29.96,NE,38,0.0,0.0,97,0.00,,,0.00,WUHU216DAVISVP2,2013-08-29 08:23:00,
2013-08-29 04:28:00,64.6,63.7,29.96,NE,38,0.0,0.0,97,0.00,,,0.00,WUHU216DAVISVP2,2013-08-29 08:28:00,
2013-08-29 04:33:00,64.4,63.5,29.96,NE,38,0.0,0.0,97,0.00,,,0.00,WUHU216DAVISVP2,2013-08-29 08:33:00,
2013-08-29 04:38:00,64.3,63.4,29.96,NE,38,0.0,0.0,97,0.00,,,0.00,WUHU216DAVISVP2,2013-08-29 08:38:00,
2013-08-29 04:43:00,64.1,63.2,29.96,NE,38,0.0,0.0,97,0.00,,,0.00,WUHU216DAVISVP2,2013-08-29 08:43:00,
2013-08-29 04:48:00,64.0,63.1,29.96,NE,37,0.0,0.0,97,0.00,,,0.00,WUHU216DAVISVP2,2013-08-29 08:48:00,
2013-08-29 04:53:00,63.8,62.9,29.96,NE,38,0.0,0.0,97,0.00,,,0.00,WUHU216DAVISVP2,2013-08-29 08:53:00,
2013-08-29 04:58:00,63.6,62.7,29.96,NE,38,0.0,0.0,97,0.00,,,0.00,WUHU216DAVISVP2,2013-08-29 08:58:00,
2013-08-29 05:03:00,63.5,62.6,29.96,NE,38,0.0,0.0,97,0.00,,,0.00,WUHU216DAVISVP2,2013-08-29 09:03:00,
2013-08-29 05:08:00,63.5,62.6,29.96,NE,38,0.0,0.0,97,0.00,,,0.00,WUHU216DAVISVP2,2013-08-29 09:08:00,
2013-08-29 05:14:00,63.6,62.7,29.96,NE,37,0.0,0.0,97,0.00,,,0.00,WUHU216DAVISVP2,2013-08-29 09:14:00,
2013-08-29 05:19:00,63.6,62.7,29.96,NE,38,0.0,0.0,97,0.00,,,0.00,WUHU216DAVISVP2,2013-08-29 09:19:00,
2013-08-29 05:24:00,63.5,62.6,29.96,NE,38,0.0,0.0,97,0.00,,,0.00,WUHU216DAVISVP2,2013-08-29 09:24:00,
2013-08-29 05:29:00,63.4,62.5,29.97,NE,37,0.0,0.0,97,0.00,,,0.00,WUHU216DAVISVP2,2013-08-29 09:29:00,
2013-08-29 05:34:00,63.3,62.4,29.97,NE,38,0.0,0.0,97,0.00,,,0.00,WUHU216DAVISVP2,2013-08-29 09:34:00,
2013-08-29 05:39:00,63.2,62.3,29.97,NE,38,0.0,0.0,97,0.00,,,0.00,WUHU216DAVISVP2,2013-08-29 09:39:00,
2013-08-29 05:44:00,63.2,62.3,29.97,NE,37,0.0,0.0,97,0.00,,,0.00,WUHU216DAVISVP2,2013-08-29 09:44:00,
2013-08-29 05:49:00,63.4,62.5,29.97,NE,38,0.0,0.0,97,0.00,,,0.00,WUHU216DAVISVP2,2013-08-29 09:49:00,
2013-08-29 05:54:00,63.3,62.4,29.97,NE,38,0.0,0.0,97,0.00,,,0.00,WUHU216DAVISVP2,2013-08-29 09:54:00,
2013-08-29 05:59:00,63.3,62.4,29.97,NE,38,0.0,0.0,97,0.00,,,0.00,WUHU216DAVISVP2,2013-08-29 09:59:00,
2013-08-29 06:04:00,63.1,62.2,29.97,NE,38,0.0,0.0,97,0.00,,,0.00,WUHU216DAVISVP2,2013-08-29 10:04:00,
2013-08-29 06:09:00,63.0,62.1,29.97,NE,38,0.0,0.0,97,0.00,,,0.00,WUHU216DAVISVP2,2013-08-29 10:09:00,
2013-08-29 06:14:00,62.9,62.0,29.97,NE,38,0.0,0.0,97,0.00,,,0.00,WUHU216DAVISVP2,2013-08-29 10:14:00,
2013-08-29 06:19:00,62.9,62.0,29.97,NE,37,0.0,0.0,97,0.00,,,0.00,WUHU216DAVISVP2,2013-08-29 10:19:00,
2013-08-29 06:24:00,62.9,62.0,29.98,NE,38,0.0,0.0,97,0.00,,,0.00,WUHU216DAVISVP2,2013-08-29 10:24:00,
2013-08-29 06:29:00,63.0,62.1,29.98,NE,38,0.0,0.0,97,0.00,,,0.00,WUHU216DAVISVP2,2013-08-29 10:29:00,
2013-08-29 06:34:00,63.0,62.1,29.98,NE,38,0.0,0.0,97,0.00,,,0.00,WUHU216DAVISVP2,2013-08-29 10:34:00,
2013-08-29 06:39:00,63.2,62.3,29.97,NE,38,0.0,0.0,97,0.00,,,0.00,WUHU216DAVISVP2,2013-08-29 10:39:00,
2013-08-29 06:44:00,63.4,62.8,29.98,NE,38,0.0,0.0,98,0.00,,,0.00,WUHU216DAVISVP2,2013-08-29 10:44:00,
2013-08-29 06:49:00,63.8,63.2,29.98,NE,37,0.0,0.0,98,0.00,,,0.00,WUHU216DAVISVP2,2013-08-29 10:49:00,
2013-08-29 06:54:00,63.9,63.3,29.98,NE,38,0.0,0.0,98,0.00,,,0.00,WUHU216DAVISVP2,2013-08-29 10:54:00,
2013-08-29 06:59:00,63.9,63.3,29.98,NE,38,0.0,0.0,98,0.00,,,0.00,WUHU216DAVISVP2,2013-08-29 10:59:00,
2013-08-29 07:04:00,63.8,63.2,29.98,NE,38,0.0,0.0,98,0.00,,,0.00,WUHU216DAVISVP2,2013-08-29 11:04:00,
2013-08-29 07:09:00,63.8,62.9,29.99,NE,38,0.0,0.0,97,0.00,,,0.00,WUHU216DAVISVP2,2013-08-29 11:09:00,
2013-08-29 07:14:00,63.7,63.1,29.99,NE,38,0.0,0.0,98,0.00,,,0.00,WUHU216DAVISVP2,2013-08-29 11:14:00,
2013-08-29 07:19:00,63.8,63.2,29.99,NE,38,0.0,0.0,98,0.00,,,0.00,WUHU216DAVISVP2,2013-08-29 11:19:00,
2013-08-29 07:24:00,63.7,63.1,29.99,NE,38,0.0,0.0,98,0.00,,,0.00,WUHU216DAVISVP2,2013-08-29 11:24:00,
2013-08-29 07:30:00,63.8,63.2,30.00,NE,38,0.0,0.0,98,0.00,,,0.00,WUHU216DAVISVP2,2013-08-29 11:30:00,
2013-08-29 07:35:00,63.8,63.2,30.00,NE,38,0.0,0.0,98,0.00,,,0.00,WUHU216DAVISVP2,2013-08-29 11:35:00,
2013-08-29 07:40:00,64.0,63.4,30.00,NE,38,0.0,0.0,98,0.00,,,0.00,WUHU216DAVISVP2,2013-08-29 11:40:00,
2013-08-29 07:45:00,64.1,63.5,30.00,NE,38,0.0,0.0,98,0.00,,,0.00,WUHU216DAVISVP2,2013-08-29 11:45:00,
2013-08-29 07:50:00,64.3,63.7,30.00,NE,38,0.0,0.0,98,0.00,,,0.00,WUHU216DAVISVP2,2013-08-29 11:50:00,
2013-08-29 07:55:00,64.5,63.9,30.00,NE,38,0.0,0.0,98,0.00,,,0.00,WUHU216DAVISVP2,2013-08-29 11:55:00,
2013-08-29 08:00:00,64.7,64.1,30.00,NE,38,0.0,0.0,98,0.00,,,0.00,WUHU216DAVISVP2,2013-08-29 12:00:00,
2013-08-29 08:05:00,65.0,64.4,30.00,NE,38,0.0,0.0,98,0.00,,,0.00,WUHU216DAVISVP2,2013-08-29 12:05:00,
2013-08-29 08:10:00,65.1,64.5,30.00,NE,38,0.0,0.0,98,0.00,,,0.00,WUHU216DAVISVP2,2013-08-29 12:10:00,
2013-08-29 08:15:00,65.3,64.7,30.00,NE,38,0.0,0.0,98,0.00,,,0.00,WUHU216DAVISVP2,2013-08-29 12:15:00,
2013-08-29 08:20:00,65.5,64.9,30.00,NE,38,0.0,0.0,98,0.00,,,0.00,WUHU216DAVISVP2,2013-08-29 12:20:00,
2013-08-29 08:25:00,65.6,65.0,30.00,NE,38,0.0,0.0,98,0.00,,,0.00,WUHU216DAVISVP2,2013-08-29 12:25:00,
2013-08-29 08:30:00,65.8,65.2,30.00,NE,38,0.0,0.0,98,0.00,,,0.00,WUHU216DAVISVP2,2013-08-29 12:30:00,
2013-08-29 08:35:00,66.0,65.4,30.00,NE,38,0.0,0.0,98,0.00,,,0.00,WUHU216DAVISVP2,2013-08-29 12:35:00,
2013-08-29 08:40:00,66.2,65.6,30.00,NE,38,0.0,0.0,98,0.00,,,0.00,WUHU216DAVISVP2,2013-08-29 12:40:00,
2013-08-29 08:45:00,66.5,65.9,30.01,NE,38,0.0,0.0,98,0.00,,,0.00,WUHU216DAVISVP2,2013-08-29 12:45:00,
2013-08-29 08:50:00,66.9,66.3,30.01,NE,38,0.0,0.0,98,0.00,,,0.00,WUHU216DAVISVP2,2013-08-29 12:50:00,
2013-08-29 08:55:00,67.2,66.6,30.01,NE,38,0.0,0.0,98,0.00,,,0.00,WUHU216DAVISVP2,2013-08-29 12:55:00,
2013-08-29 09:00:00,67.6,67.0,30.00,NE,38,0.0,1.0,98,0.00,,,0.00,WUHU216DAVISVP2,2013-08-29 13:00:00,
2013-08-29 09:05:00,68.1,67.5,30.01,NE,38,0.0,1.0,98,0.00,,,0.00,WUHU216DAVISVP2,2013-08-29 13:05:00,
2013-08-29 09:10:00,68.6,68.0,30.00,NE,38,0.0,2.0,98,0.00,,,0.00,WUHU216DAVISVP2,2013-08-29 13:10:00,
2013-08-29 09:15:00,69.0,68.4,30.00,WNW,295,0.0,2.0,98,0.00,,,0.00,WUHU216DAVISVP2,2013-08-29 13:15:00,
2013-08-29 09:20:00,69.2,68.6,30.00,WNW,296,0.0,1.0,98,0.00,,,0.00,WUHU216DAVISVP2,2013-08-29 13:20:00,
2013-08-29 09:25:00,69.7,69.1,30.00,WNW,295,0.0,0.0,98,0.00,,,0.00,WUHU216DAVISVP2,2013-08-29 13:25:00,
2013-08-29 09:30:00,70.1,69.5,30.00,WNW,295,0.0,2.0,98,0.00,,,0.00,WUHU216DAVISVP2,2013-08-29 13:30:00,
2013-08-29 09:35:00,70.4,69.8,30.00,WNW,295,0.0,2.0,98,0.00,,,0.00,WUHU216DAVISVP2,2013-08-29 13:35:00,
2013-08-29 09:40:00,70.7,70.1,30.00,WNW,295,0.0,0.0,98,0.00,,,0.00,WUHU216DAVISVP2,2013-08-29 13:40:00,
2013-08-29 09:45:00,71.1,70.5,30.00,WNW,295,0.0,1.0,98,0.00,,,0.00,WUHU216DAVISVP2,2013-08-29 13:45:00,
2013-08-29 09:50:00,71.1,70.5,30.01,WNW,295,0.0,1.0,98,0.00,,,0.00,WUHU216DAVISVP2,2013-08-29 13:50:00,
2013-08-29 09:55:00,71.5,70.9,30.01,WNW,295,0.0,0.0,98,0.00,,,0.00,WUHU216DAVISVP2,2013-08-29 13:55:00,
2013-08-29 10:00:00,71.7,70.8,30.01,SSE,167,0.0,1.0,97,0.00,,,0.00,WUHU216DAVISVP2,2013-08-29 14:00:00,
2013-08-29 10:05:00,72.1,71.2,30.01,SSE,165,0.0,1.0,97,0.00,,,0.00,WUHU216DAVISVP2,2013-08-29 14:05:00,
2013-08-29 10:10:00,72.6,71.4,30.01,South,172,2.0,4.0,96,0.00,,,0.00,WUHU216DAVISVP2,2013-08-29 14:10:00,
2013-08-29 10:15:00,73.2,71.7,30.00,South,173,0.0,4.0,95,0.00,,,0.00,WUHU216DAVISVP2,2013-08-29 14:15:00,
2013-08-29 10:20:00,73.8,71.6,30.00,South,173,0.0,2.0,93,0.00,,,0.00,WUHU216DAVISVP2,2013-08-29 14:20:00,
2013-08-29 10:25:00,74.6,72.1,30.00,South,172,0.0,1.0,92,0.00,,,0.00,WUHU216DAVISVP2,2013-08-29 14:25:00,
2013-08-29 10:30:00,75.1,71.3,30.00,East,98,1.0,4.0,88,0.00,,,0.00,WUHU216DAVISVP2,2013-08-29 14:30:00,
2013-08-29 10:35:00,75.6,71.5,30.01,ESE,115,1.0,4.0,87,0.00,,,0.00,WUHU216DAVISVP2,2013-08-29 14:35:00,
2013-08-29 10:40:00,76.0,71.5,30.00,East,101,0.0,4.0,86,0.00,,,0.00,WUHU216DAVISVP2,2013-08-29 14:40:00,
2013-08-29 10:45:00,76.3,71.2,30.00,SSE,150,1.0,4.0,84,0.00,,,0.00,WUHU216DAVISVP2,2013-08-29 14:45:00,
2013-08-29 10:50:00,76.6,72.1,30.00,ENE,68,1.0,4.0,86,0.00,,,0.00,WUHU216DAVISVP2,2013-08-29 14:50:00,
2013-08-29 10:55:00,77.3,72.1,30.01,NE,55,1.0,4.0,84,0.00,,,0.00,WUHU216DAVISVP2,2013-08-29 14:55:00,
2013-08-29 11:00:00,78.2,73.0,30.01,NE,47,1.0,4.0,84,0.00,,,0.00,WUHU216DAVISVP2,2013-08-29 15:00:00,
2013-08-29 11:05:00,78.8,71.7,30.01,NE,47,1.0,4.0,79,0.00,,,0.00,WUHU216DAVISVP2,2013-08-29 15:05:00,
2013-08-29 11:10:00,79.4,71.9,30.01,NE,47,0.0,3.0,78,0.00,,,0.00,WUHU216DAVISVP2,2013-08-29 15:10:00,
2013-08-29 11:15:00,80.2,71.7,30.01,NE,46,0.0,2.0,75,0.00,,,0.00,WUHU216DAVISVP2,2013-08-29 15:15:00,
2013-08-29 11:20:00,80.2,70.6,30.01,SE,145,0.0,4.0,72,0.00,,,0.00,WUHU216DAVISVP2,2013-08-29 15:20:00,
2013-08-29 11:25:00,80.2,71.0,30.01,South,176,0.0,5.0,73,0.00,,,0.00,WUHU216DAVISVP2,2013-08-29 15:25:00,
2013-08-29 11:30:00,80.4,72.1,30.01,SSE,150,0.0,5.0,76,0.00,,,0.00,WUHU216DAVISVP2,2013-08-29 15:30:00,
2013-08-29 11:35:00,80.7,71.2,30.01,SSE,161,0.0,5.0,73,0.00,,,0.00,WUHU216DAVISVP2,2013-08-29 15:35:00,
2013-08-29 11:40:00,81.0,71.1,30.01,North,10,0.0,5.0,72,0.00,,,0.00,WUHU216DAVISVP2,2013-08-29 15:40:00,
2013-08-29 11:45:00,81.2,70.5,30.00,NNE,13,0.0,5.0,70,0.00,,,0.00,WUHU216DAVISVP2,2013-08-29 15:45:00,
2013-08-29 11:50:00,81.4,71.5,30.00,East,82,0.0,2.0,72,0.00,,,0.00,WUHU216DAVISVP2,2013-08-29 15:50:00,
2013-08-29 11:55:00,81.6,70.4,30.01,SW,217,1.0,4.0,69,0.00,,,0.00,WUHU216DAVISVP2,2013-08-29 15:55:00,
2013-08-29 12:00:00,81.9,71.6,30.00,East,94,0.0,4.0,71,0.00,,,0.00,WUHU216DAVISVP2,2013-08-29 16:00:00,
2013-08-29 12:05:00,82.0,70.0,30.00,SSE,165,0.0,4.0,67,0.00,,,0.00,WUHU216DAVISVP2,2013-08-29 16:05:00,
2013-08-29 12:10:00,82.3,69.8,30.00,ESE,121,0.0,4.0,66,0.00,,,0.00,WUHU216DAVISVP2,2013-08-29 16:10:00,
2013-08-29 12:15:00,82.9,71.9,30.00,ESE,109,2.0,4.0,69,0.00,,,0.00,WUHU216DAVISVP2,2013-08-29 16:15:00,
2013-08-29 12:20:00,83.0,70.3,30.00,East,92,1.0,4.0,65,0.00,,,0.00,WUHU216DAVISVP2,2013-08-29 16:20:00,
2013-08-29 12:25:00,83.0,71.2,30.00,ESE,104,0.0,4.0,67,0.00,,,0.00,WUHU216DAVISVP2,2013-08-29 16:25:00,
2013-08-29 12:30:00,82.8,69.2,30.00,South,188,2.0,7.0,63,0.00,,,0.00,WUHU216DAVISVP2,2013-08-29 16:30:00,
2013-08-29 12:35:00,82.8,70.5,30.00,South,175,1.0,7.0,66,0.00,,,0.00,WUHU216DAVISVP2,2013-08-29 16:35:00,
2013-08-29 12:40:00,83.0,69.4,30.00,SSE,168,1.0,7.0,63,0.00,,,0.00,WUHU216DAVISVP2,2013-08-29 16:40:00,
2013-08-29 12:45:00,83.1,69.9,30.00,South,184,0.0,5.0,64,0.00,,,0.00,WUHU216DAVISVP2,2013-08-29 16:45:00,
2013-08-29 12:50:00,83.4,68.8,30.00,South,183,0.0,5.0,61,0.00,,,0.00,WUHU216DAVISVP2,2013-08-29 16:50:00,
2013-08-29 12:55:00,83.9,70.7,30.00,NE,34,2.0,5.0,64,0.00,,,0.00,WUHU216DAVISVP2,2013-08-29 16:55:00,
2013-08-29 13:00:00,84.6,71.4,30.00,NNW,338,0.0,5.0,64,0.00,,,0.00,WUHU216DAVISVP2,2013-08-29 17:00:00,
2013-08-29 13:05:00,85.2,71.9,30.00,NNW,344,1.0,5.0,64,0.00,,,0.00,WUHU216DAVISVP2,2013-08-29 17:05:00,
2013-08-29 13:10:00,85.5,69.3,30.00,SE,130,0.0,4.0,58,0.00,,,0.00,WUHU216DAVISVP2,2013-08-29 17:10:00,
2013-08-29 13:15:00,85.7,69.0,29.99,SE,138,0.0,4.0,57,0.00,,,0.00,WUHU216DAVISVP2,2013-08-29 17:15:00,
2013-08-29 13:20:00,86.4,68.6,29.99,ESE,112,1.0,3.0,55,0.00,,,0.00,WUHU216DAVISVP2,2013-08-29 17:20:00,
2013-08-29 13:25:00,86.4,68.6,29.99,SSE,152,4.0,6.0,55,0.00,,,0.00,WUHU216DAVISVP2,2013-08-29 17:25:00,
2013-08-29 13:30:00,86.0,66.9,29.99,SSE,149,4.0,7.0,53,0.00,,,0.00,WUHU216DAVISVP2,2013-08-29 17:30:00,
2013-08-29 13:35:00,85.5,69.0,29.99,SSE,149,0.0,7.0,58,0.00,,,0.00,WUHU216DAVISVP2,2013-08-29 17:35:00,
2013-08-29 13:40:00,85.6,69.1,29.99,SSE,154,6.0,6.0,58,0.00,,,0.00,WUHU216DAVISVP2,2013-08-29 17:40:00,
2013-08-29 13:45:00,85.6,68.3,29.99,South,175,1.0,6.0,56,0.00,,,0.00,WUHU216DAVISVP2,2013-08-29 17:45:00,
2013-08-29 13:50:00,85.7,66.8,29.99,SSE,161,0.0,6.0,53,0.00,,,0.00,WUHU216DAVISVP2,2013-08-29 17:50:00,
2013-08-29 13:55:00,86.0,68.2,29.99,SSE,167,1.0,5.0,55,0.00,,,0.00,WUHU216DAVISVP2,2013-08-29 17:55:00,
2013-08-29 14:00:00,85.8,65.2,29.99,SSE,161,2.0,6.0,50,0.00,,,0.00,WUHU216DAVISVP2,2013-08-29 18:00:00,
2013-08-29 14:05:00,85.8,64.4,29.98,SSW,204,3.0,6.0,49,0.00,,,0.00,WUHU216DAVISVP2,2013-08-29 18:05:00,
2013-08-29 14:10:00,86.1,65.4,29.98,South,188,2.0,6.0,50,0.00,,,0.00,WUHU216DAVISVP2,2013-08-29 18:10:00,
2013-08-29 14:15:00,86.1,64.2,29.98,SSW,194,4.0,5.0,48,0.00,,,0.00,WUHU216DAVISVP2,2013-08-29 18:15:00,
2013-08-29 14:20:00,86.1,66.0,29.98,South,187,0.0,4.0,51,0.00,,,0.00,WUHU216DAVISVP2,2013-08-29 18:20:00,
2013-08-29 14:25:00,86.4,64.5,29.98,SSW,198,1.0,5.0,48,0.00,,,0.00,WUHU216DAVISVP2,2013-08-29 18:25:00,
2013-08-29 14:30:00,86.5,66.4,29.98,SSW,193,0.0,5.0,51,0.00,,,0.00,WUHU216DAVISVP2,2013-08-29 18:30:00,
2013-08-29 14:35:00,86.6,65.3,29.98,WNW,283,4.0,6.0,49,0.00,,,0.00,WUHU216DAVISVP2,2013-08-29 18:35:00,
2013-08-29 14:40:00,87.1,66.4,29.98,East,90,1.0,6.0,50,0.00,,,0.00,WUHU216DAVISVP2,2013-08-29 18:40:00,
2013-08-29 14:45:00,87.3,65.9,29.98,ESE,108,4.0,6.0,49,0.00,,,0.00,WUHU216DAVISVP2,2013-08-29 18:45:00,
2013-08-29 14:50:00,87.5,65.5,29.98,SSE,161,2.0,7.0,48,0.00,,,0.00,WUHU216DAVISVP2,2013-08-29 18:50:00,
2013-08-29 14:55:00,87.3,65.3,29.98,West,268,0.0,7.0,48,0.00,,,0.00,WUHU216DAVISVP2,2013-08-29 18:55:00,
2013-08-29 15:00:00,87.6,63.7,29.98,South,181,0.0,5.0,45,0.00,,,0.00,WUHU216DAVISVP2,2013-08-29 19:00:00,
2013-08-29 15:05:00,88.0,64.7,29.98,South,169,5.0,5.0,46,0.00,,,0.00,WUHU216DAVISVP2,2013-08-29 19:05:00,
2013-08-29 15:10:00,87.9,67.1,29.98,SSW,209,2.0,6.0,50,0.00,,,0.00,WUHU216DAVISVP2,2013-08-29 19:10:00,
2013-08-29 15:15:00,88.1,64.8,29.97,SSE,153,0.0,6.0,46,0.00,,,0.00,WUHU216DAVISVP2,2013-08-29 19:15:00,
2013-08-29 15:20:00,88.4,67.0,29.97,SSE,152,2.0,4.0,49,0.00,,,0.00,WUHU216DAVISVP2,2013-08-29 19:20:00,
2013-08-29 15:25:00,88.3,66.3,29.97,SSE,150,1.0,4.0,48,0.00,,,0.00,WUHU216DAVISVP2,2013-08-29 19:25:00,
2013-08-29 15:30:00,88.3,66.1,29.97,SE,128,1.0,6.0,48,0.00,,,0.00,WUHU216DAVISVP2,2013-08-29 19:30:00,
2013-08-29 15:35:00,88.2,67.2,29.97,SSE,167,2.0,6.0,50,0.00,,,0.00,WUHU216DAVISVP2,2013-08-29 19:35:00,
2013-08-29 15:40:00,88.0,63.4,29.97,South,187,0.0,5.0,44,0.00,,,0.00,WUHU216DAVISVP2,2013-08-29 19:40:00,
2013-08-29 15:45:00,88.5,66.4,29.96,South,188,1.0,2.0,48,0.00,,,0.00,WUHU216DAVISVP2,2013-08-29 19:45:00,
2013-08-29 15:50:00,88.8,63.5,29.96,SSW,193,4.0,4.0,43,0.00,,,0.00,WUHU216DAVISVP2,2013-08-29 19:50:00,
2013-08-29 15:55:00,88.7,64.0,29.96,South,185,0.0,4.0,44,0.00,,,0.00,WUHU216DAVISVP2,2013-08-29 19:55:00,
2013-08-29 16:00:00,88.7,65.9,29.96,South,175,2.0,4.0,47,0.00,,,0.00,WUHU216DAVISVP2,2013-08-29 20:00:00,
2013-08-29 16:05:00,88.9,66.7,29.96,NE,46,2.0,4.0,48,0.00,,,0.00,WUHU216DAVISVP2,2013-08-29 20:05:00,
2013-08-29 16:10:00,89.4,65.3,29.96,ENE,72,0.0,4.0,45,0.00,,,0.00,WUHU216DAVISVP2,2013-08-29 20:10:00,
2013-08-29 16:15:00,89.7,66.9,29.96,East,84,4.0,4.0,47,0.00,,,0.00,WUHU216DAVISVP2,2013-08-29 20:15:00,
2013-08-29 16:20:00,90.1,68.5,29.95,East,79,0.0,4.0,49,0.00,,,0.00,WUHU216DAVISVP2,2013-08-29 20:20:00,
2013-08-29 16:25:00,90.7,67.2,29.95,East,79,0.0,4.0,46,0.00,,,0.00,WUHU216DAVISVP2,2013-08-29 20:25:00,
2013-08-29 16:30:00,91.1,66.2,29.95,NE,44,0.0,4.0,44,0.00,,,0.00,WUHU216DAVISVP2,2013-08-29 20:30:00,
2013-08-29 16:35:00,90.4,64.9,29.96,South,173,1.0,7.0,43,0.00,,,0.00,WUHU216DAVISVP2,2013-08-29 20:35:00,
2013-08-29 16:40:00,89.8,65.7,29.95,South,169,4.0,7.0,45,0.00,,,0.00,WUHU216DAVISVP2,2013-08-29 20:40:00,
2013-08-29 16:45:00,89.0,65.6,29.95,South,171,2.0,5.0,46,0.00,,,0.00,WUHU216DAVISVP2,2013-08-29 20:45:00,
2013-08-29 16:50:00,88.6,65.9,29.95,West,277,1.0,6.0,47,0.00,,,0.00,WUHU216DAVISVP2,2013-08-29 20:50:00,
2013-08-29 16:55:00,88.9,68.0,29.95,West,269,1.0,6.0,50,0.00,,,0.00,WUHU216DAVISVP2,2013-08-29 20:55:00,
2013-08-29 17:00:00,88.9,66.2,29.95,West,265,0.0,4.0,47,0.00,,,0.00,WUHU216DAVISVP2,2013-08-29 21:00:00,
2013-08-29 17:05:00,89.0,65.0,29.95,SSW,200,1.0,4.0,45,0.00,,,0.00,WUHU216DAVISVP2,2013-08-29 21:05:00,
2013-08-29 17:10:00,88.8,66.1,29.95,South,175,0.0,3.0,47,0.00,,,0.00,WUHU216DAVISVP2,2013-08-29 21:10:00,
2013-08-29 17:15:00,88.8,66.1,29.94,SSW,207,1.0,4.0,47,0.00,,,0.00,WUHU216DAVISVP2,2013-08-29 21:15:00,
2013-08-29 17:20:00,88.6,65.3,29.95,SSW,192,0.0,4.0,46,0.00,,,0.00,WUHU216DAVISVP2,2013-08-29 21:20:00,
2013-08-29 17:25:00,88.4,65.7,29.94,South,178,2.0,6.0,47,0.00,,,0.00,WUHU216DAVISVP2,2013-08-29 21:25:00,
2013-08-29 17:30:00,88.1,66.7,29.95,South,188,4.0,6.0,49,0.00,,,0.00,WUHU216DAVISVP2,2013-08-29 21:30:00,
2013-08-29 17:35:00,87.9,65.3,29.95,SSE,157,0.0,6.0,47,0.00,,,0.00,WUHU216DAVISVP2,2013-08-29 21:35:00,
2013-08-29 17:40:00,87.7,65.0,29.94,SSE,161,2.0,6.0,47,0.00,,,0.00,WUHU216DAVISVP2,2013-08-29 21:40:00,
2013-08-29 17:45:00,87.4,67.1,29.94,SSE,155,1.0,7.0,51,0.00,,,0.00,WUHU216DAVISVP2,2013-08-29 21:45:00,
2013-08-29 17:50:00,87.3,65.8,29.94,SSE,161,0.0,7.0,49,0.00,,,0.00,WUHU216DAVISVP2,2013-08-29 21:50:00,
2013-08-29 17:55:00,87.8,69.1,29.94,SSE,161,0.0,5.0,54,0.00,,,0.00,WUHU216DAVISVP2,2013-08-29 21:55:00,
2013-08-29 18:00:00,88.3,66.9,29.94,SSE,161,1.0,4.0,49,0.00,,,0.00,WUHU216DAVISVP2,2013-08-29 22:00:00,
2013-08-29 18:05:00,88.4,67.0,29.94,SSE,162,0.0,4.0,49,0.00,,,0.00,WUHU216DAVISVP2,2013-08-29 22:05:00,
2013-08-29 18:10:00,88.7,68.4,29.94,SSE,162,0.0,2.0,51,0.00,,,0.00,WUHU216DAVISVP2,2013-08-29 22:10:00,
2013-08-29 18:15:00,88.4,66.3,29.94,SSE,162,0.0,4.0,48,0.00,,,0.00,WUHU216DAVISVP2,2013-08-29 22:15:00,
2013-08-29 18:20:00,88.1,66.7,29.94,SSE,155,4.0,6.0,49,0.00,,,0.00,WUHU216DAVISVP2,2013-08-29 22:20:00,
2013-08-29 18:25:00,87.8,65.7,29.94,SSE,155,0.0,6.0,48,0.00,,,0.00,WUHU216DAVISVP2,2013-08-29 22:25:00,
2013-08-29 18:30:00,87.8,66.3,29.94,SSE,168,2.0,5.0,49,0.00,,,0.00,WUHU216DAVISVP2,2013-08-29 22:30:00,
2013-08-29 18:35:00,87.5,66.0,29.94,South,177,1.0,5.0,49,0.00,,,0.00,WUHU216DAVISVP2,2013-08-29 22:35:00,
2013-08-29 18:40:00,87.4,66.0,29.94,South,177,1.0,5.0,49,0.00,,,0.00,WUHU216DAVISVP2,2013-08-29 22:40:00,
2013-08-29 18:45:00,87.5,69.3,29.94,South,176,0.0,2.0,55,0.00,,,0.00,WUHU216DAVISVP2,2013-08-29 22:45:00,
2013-08-29 18:50:00,87.4,67.8,29.94,South,176,2.0,2.0,52,0.00,,,0.00,WUHU216DAVISVP2,2013-08-29 22:50:00,
2013-08-29 18:55:00,86.8,67.3,29.94,South,169,0.0,4.0,52,0.00,,,0.00,WUHU216DAVISVP2,2013-08-29 22:55:00,
2013-08-29 19:00:00,86.6,68.2,29.94,South,169,0.0,2.0,54,0.00,,,0.00,WUHU216DAVISVP2,2013-08-29 23:00:00,
2013-08-29 19:05:00,86.3,66.8,29.94,South,169,2.0,4.0,52,0.00,,,0.00,WUHU216DAVISVP2,2013-08-29 23:05:00,
2013-08-29 19:10:00,86.1,68.8,29.94,South,169,0.0,4.0,56,0.00,,,0.00,WUHU216DAVISVP2,2013-08-29 23:10:00,
2013-08-29 19:15:00,85.9,68.1,29.93,South,169,0.0,2.0,55,0.00,,,0.00,WUHU216DAVISVP2,2013-08-29 23:15:00,
2013-08-29 19:20:00,85.7,67.4,29.94,WSW,252,0.0,1.0,54,0.00,,,0.00,WUHU216DAVISVP2,2013-08-29 23:20:00,
2013-08-29 19:25:00,85.7,70.0,29.94,WSW,252,0.0,1.0,59,0.00,,,0.00,WUHU216DAVISVP2,2013-08-29 23:25:00,
2013-08-29 19:30:00,85.4,69.7,29.94,WSW,252,0.0,1.0,59,0.00,,,0.00,WUHU216DAVISVP2,2013-08-29 23:30:00,
2013-08-29 19:35:00,84.5,69.8,29.94,WSW,252,0.0,0.0,61,0.00,,,0.00,WUHU216DAVISVP2,2013-08-29 23:35:00,
2013-08-29 19:40:00,83.6,70.9,29.93,WSW,252,0.0,0.0,65,0.00,,,0.00,WUHU216DAVISVP2,2013-08-29 23:40:00,
2013-08-29 19:45:00,82.6,70.8,29.93,WSW,252,0.0,0.0,67,0.00,,,0.00,WUHU216DAVISVP2,2013-08-29 23:45:00,
2013-08-29 19:50:00,81.7,70.8,29.94,WSW,252,0.0,0.0,69,0.00,,,0.00,WUHU216DAVISVP2,2013-08-29 23:50:00,
2013-08-29 19:55:00,81.0,70.9,29.94,WSW,252,0.0,0.0,71,0.00,,,0.00,WUHU216DAVISVP2,2013-08-29 23:55:00,
2013-08-29 20:00:00,80.2,71.0,29.93,WSW,252,0.0,0.0,73,0.00,,,0.00,WUHU216DAVISVP2,2013-08-30 00:00:00,
2013-08-29 20:05:00,79.4,70.2,29.93,WSW,252,0.0,0.0,73,0.00,,,0.00,WUHU216DAVISVP2,2013-08-30 00:05:00,
2013-08-29 20:10:00,78.5,70.1,29.93,WSW,252,0.0,0.0,75,0.00,,,0.00,WUHU216DAVISVP2,2013-08-30 00:10:00,
2013-08-29 20:15:00,78.0,70.3,29.93,WSW,252,0.0,0.0,77,0.00,,,0.00,WUHU216DAVISVP2,2013-08-30 00:15:00,
2013-08-29 20:20:00,77.4,70.1,29.93,WSW,252,0.0,0.0,78,0.00,,,0.00,WUHU216DAVISVP2,2013-08-30 00:20:00,
2013-08-29 20:25:00,76.8,70.3,29.94,WSW,252,0.0,0.0,80,0.00,,,0.00,WUHU216DAVISVP2,2013-08-30 00:25:00,
2013-08-29 20:30:00,76.2,70.0,29.94,WSW,252,0.0,0.0,81,0.00,,,0.00,WUHU216DAVISVP2,2013-08-30 00:30:00,
2013-08-29 20:35:00,75.7,69.9,29.94,WSW,252,0.0,0.0,82,0.00,,,0.00,WUHU216DAVISVP2,2013-08-30 00:35:00,
2013-08-29 20:40:00,75.2,69.4,29.94,WSW,252,0.0,0.0,82,0.00,,,0.00,WUHU216DAVISVP2,2013-08-30 00:40:00,
2013-08-29 20:45:00,74.8,69.4,29.94,WSW,252,0.0,0.0,83,0.00,,,0.00,WUHU216DAVISVP2,2013-08-30 00:45:00,
2013-08-29 20:50:00,74.3,69.2,29.94,WSW,252,0.0,0.0,84,0.00,,,0.00,WUHU216DAVISVP2,2013-08-30 00:50:00,
2013-08-29 20:55:00,73.9,69.1,29.94,WSW,252,0.0,0.0,85,0.00,,,0.00,WUHU216DAVISVP2,2013-08-30 00:55:00,
2013-08-29 21:00:00,73.5,68.7,29.94,WSW,252,0.0,0.0,85,0.00,,,0.00,WUHU216DAVISVP2,2013-08-30 01:00:00,
2013-08-29 21:05:00,73.1,68.7,29.94,WSW,252,0.0,0.0,86,0.00,,,0.00,WUHU216DAVISVP2,2013-08-30 01:05:00,
2013-08-29 21:10:00,72.8,68.4,29.94,WSW,252,0.0,0.0,86,0.00,,,0.00,WUHU216DAVISVP2,2013-08-30 01:10:00,
2013-08-29 21:15:00,72.5,68.4,29.94,WSW,252,0.0,0.0,87,0.00,,,0.00,WUHU216DAVISVP2,2013-08-30 01:15:00,
2013-08-29 21:20:00,72.2,68.4,29.94,WSW,252,0.0,0.0,88,0.00,,,0.00,WUHU216DAVISVP2,2013-08-30 01:20:00,
2013-08-29 21:25:00,72.0,68.3,29.94,WSW,252,0.0,0.0,88,0.00,,,0.00,WUHU216DAVISVP2,2013-08-30 01:25:00,
2013-08-29 21:30:00,71.8,68.1,29.94,WSW,252,0.0,0.0,88,0.00,,,0.00,WUHU216DAVISVP2,2013-08-30 01:30:00,
2013-08-29 21:35:00,71.6,68.2,29.95,WSW,252,0.0,0.0,89,0.00,,,0.00,WUHU216DAVISVP2,2013-08-30 01:35:00,
2013-08-29 21:40:00,71.4,68.3,29.94,WSW,252,0.0,0.0,90,0.00,,,0.00,WUHU216DAVISVP2,2013-08-30 01:40:00,
2013-08-29 21:45:00,71.2,68.1,29.95,WSW,252,0.0,0.0,90,0.00,,,0.00,WUHU216DAVISVP2,2013-08-30 01:45:00,
2013-08-29 21:50:00,71.0,67.9,29.94,WSW,252,0.0,0.0,90,0.00,,,0.00,WUHU216DAVISVP2,2013-08-30 01:50:00,
2013-08-29 21:55:00,70.8,68.0,29.94,WSW,252,0.0,0.0,91,0.00,,,0.00,WUHU216DAVISVP2,2013-08-30 01:55:00,
2013-08-29 22:00:00,70.6,67.8,29.94,WSW,252,0.0,0.0,91,0.00,,,0.00,WUHU216DAVISVP2,2013-08-30 02:00:00,
2013-08-29 22:05:00,70.4,67.6,29.94,WSW,252,0.0,0.0,91,0.00,,,0.00,WUHU216DAVISVP2,2013-08-30 02:05:00,
2013-08-29 22:10:00,70.3,67.5,29.94,WSW,252,0.0,0.0,91,0.00,,,0.00,WUHU216DAVISVP2,2013-08-30 02:10:00,
2013-08-29 22:15:00,70.1,67.6,29.94,WSW,252,0.0,0.0,92,0.00,,,0.00,WUHU216DAVISVP2,2013-08-30 02:15:00,
2013-08-29 22:19:00,70.0,67.5,29.94,WSW,252,0.0,0.0,92,0.00,,,0.00,WUHU216DAVISVP2,2013-08-30 02:19:00,
2013-08-29 22:24:00,69.8,67.3,29.93,WSW,252,0.0,0.0,92,0.00,,,0.00,WUHU216DAVISVP2,2013-08-30 02:24:00,
2013-08-29 22:30:00,69.6,67.1,29.93,WSW,252,0.0,0.0,92,0.00,,,0.00,WUHU216DAVISVP2,2013-08-30 02:30:00,
2013-08-29 22:36:00,69.5,67.4,29.94,WSW,252,0.0,0.0,93,0.00,,,0.00,WUHU216DAVISVP2,2013-08-30 02:36:00,
2013-08-29 22:41:00,69.3,67.2,29.94,WSW,252,0.0,0.0,93,0.00,,,0.00,WUHU216DAVISVP2,2013-08-30 02:41:00,
2013-08-29 22:46:00,69.2,67.1,29.94,WSW,252,0.0,0.0,93,0.00,,,0.00,WUHU216DAVISVP2,2013-08-30 02:46:00,
2013-08-29 22:51:00,69.1,67.0,29.94,WSW,252,0.0,0.0,93,0.00,,,0.00,WUHU216DAVISVP2,2013-08-30 02:51:00,
2013-08-29 22:56:00,69.0,67.2,29.94,WSW,252,0.0,0.0,94,0.00,,,0.00,WUHU216DAVISVP2,2013-08-30 02:56:00,
2013-08-29 23:01:00,68.9,67.1,29.94,WSW,252,0.0,0.0,94,0.00,,,0.00,WUHU216DAVISVP2,2013-08-30 03:01:00,
2013-08-29 23:06:00,68.8,67.0,29.93,WSW,252,0.0,0.0,94,0.00,,,0.00,WUHU216DAVISVP2,2013-08-30 03:06:00,
2013-08-29 23:11:00,68.6,66.8,29.93,WSW,252,0.0,0.0,94,0.00,,,0.00,WUHU216DAVISVP2,2013-08-30 03:11:00,
2013-08-29 23:16:00,68.5,66.7,29.93,WSW,252,0.0,0.0,94,0.00,,,0.00,WUHU216DAVISVP2,2013-08-30 03:16:00,
2013-08-29 23:21:00,68.3,66.5,29.93,WSW,252,0.0,0.0,94,0.00,,,0.00,WUHU216DAVISVP2,2013-08-30 03:21:00,
2013-08-29 23:26:00,68.3,66.5,29.93,WSW,252,0.0,0.0,94,0.00,,,0.00,WUHU216DAVISVP2,2013-08-30 03:26:00,
2013-08-29 23:31:00,68.3,66.8,29.93,WSW,252,0.0,0.0,95,0.00,,,0.00,WUHU216DAVISVP2,2013-08-30 03:31:00,
2013-08-29 23:36:00,68.2,66.7,29.93,WSW,252,0.0,0.0,95,0.00,,,0.00,WUHU216DAVISVP2,2013-08-30 03:36:00,
2013-08-29 23:41:00,68.1,66.6,29.92,WSW,252,0.0,1.0,95,0.00,,,0.00,WUHU216DAVISVP2,2013-08-30 03:41:00,
2013-08-29 23:46:00,67.9,66.1,29.92,WSW,252,0.0,1.0,94,0.00,,,0.00,WUHU216DAVISVP2,2013-08-30 03:46:00,
2013-08-29 23:51:00,67.7,65.9,29.92,WSW,252,0.0,0.0,94,0.00,,,0.00,WUHU216DAVISVP2,2013-08-30 03:51:00,
2013-08-29 23:56:00,67.7,66.2,29.93,WSW,252,0.0,0.0,95,0.00,,,0.00,WUHU216DAVISVP2,2013-08-30 03:56:00,